Weather in Sytaya Buda

Russia / Bryansk Oblast     52°28′53″N   32°15′06″E
temp.,
°C
wind,
m/s
gust,
m/s
humid.,
%
clouds,
%
prec.,
mm/h
press.,
hPa
HPBL,
m
6 march, sat
sat600:00−6nw4789100 0.0 1018131
03:00−9nw359173 0.0 102088
06:00−11nw34910 0.0 102041
09:00−9nw36889 0.0 1022161
12:00−4nw3477100 0.0 1022445
15:00−3wnw338098 0.0 1021766
18:00−6wnw238890 0.1 102157
21:00−9w348945 0.1 102142
7 march, sun
sun700:00−9wsw47900 0.0 1020119
03:00−8sw613853 0.0 1018290
06:00−5sw81781100 0.0 1014576
09:00−3wsw101781100 0.0 1010991
12:000wsw111790100 0.1 10061236
15:00+1w101889100 0.2 10051307
18:000wnw91686100 1.1 10051075
21:00−5w497854 1.2 1007181
8 march, mon
mon800:00−3wsw615870 0.0 1006496
03:00−3w7158316 0.1 1006697
06:00−9nw4117875 0.0 1007316
09:00−9nw4108242 0.0 1010435
12:00−5nw577829 0.0 1011743
15:00−4wnw577315 0.0 10121039
18:00−6wnw35819 0.0 101297
21:00−9wnw23829 0.0 101421
9 march, tue
tue900:00−9nw228471 0.0 101521
03:00−10nnw239274 0.0 101522
06:00−9nnw479499 0.1 1016256
09:00−10nnw489299 0.1 1018387
12:00−7nnw578576 0.0 1020872
15:00−6nnw568188 0.1 10211049
18:00−8nnw368699 0.1 1022204
21:00−11nnw338849 0.1 102431
10 march, wed
wed1000:00−13wnw12900 0.0 102521
03:00−12sw348920 0.0 102542
06:00−11sw488787 0.0 1024137
09:00−8wsw5118094 0.0 1023388
12:00−4w61073100 0.0 1023678
15:00−2w5870100 0.0 1022869
18:00−4w357896 0.0 102291
21:00−7wsw237687 0.0 102321